| time (UTC) | temp C | wind direction | speed KPH | gust KPH | rain 1hr cm | rain 24hr cm | rain mn cm | humidity % | barometer mb |
| 20260502220048 | 18 | 344 | 4.8 | 14.5 | 0.00 | 0.00 | 0.00 | 36 | 1019.6 |
| 20260502214538 | 18 | 239 | 3.2 | 9.7 | 0.00 | 0.00 | 0.00 | 38 | 1019.8 |
| 20260502213036 | 17 | 288 | 0.0 | 3.2 | 0.00 | 0.00 | 0.00 | 39 | 1020.0 |
| 20260502211535 | 17 | 302 | 1.6 | 6.4 | 0.00 | 0.00 | 0.00 | 40 | 1020.3 |
| 20260502210035 | 17 | 328 | 3.2 | 14.5 | 0.00 | 0.00 | 0.00 | 40 | 1020.5 |
| 20260502204531 | 17 | 12 | 4.8 | 16.1 | 0.00 | 0.00 | 0.00 | 39 | 1020.5 |
| 20260502203031 | 17 | 348 | 9.7 | 16.1 | 0.00 | 0.00 | 0.00 | 40 | 1020.5 |
| 20260502201534 | 17 | 332 | 6.4 | 16.1 | 0.00 | 0.00 | 0.00 | 40 | 1020.7 |
| 20260502200027 | 17 | 51 | 8.0 | 22.5 | 0.00 | 0.00 | 0.00 | 42 | 1020.9 |
| 20260502194522 | 16 | 71 | 9.7 | 19.3 | 0.00 | 0.00 | 0.00 | 43 | 1021.2 |
| 20260502193022 | 15 | 71 | 11.3 | 16.1 | 0.00 | 0.00 | 0.00 | 45 | 1021.4 |
| 20260502191521 | 15 | 79 | 11.3 | 16.1 | 0.00 | 0.00 | 0.00 | 45 | 1021.5 |
| 20260502190026 | 15 | 73 | 9.7 | 17.7 | 0.00 | 0.00 | 0.00 | 45 | 1021.6 |
| 20260502184619 | 15 | 69 | 12.9 | 20.9 | 0.00 | 0.00 | 0.00 | 45 | 1021.7 |
| 20260502183051 | 15 | 83 | 8.0 | 14.5 | 0.00 | 0.00 | 0.00 | 45 | 1021.7 |
| 20260502181552 | 15 | 53 | 9.7 | 17.7 | 0.00 | 0.00 | 0.00 | 44 | 1021.7 |
| 20260502163045 | 16 | 64 | 19.3 | 27.4 | 0.00 | 0.00 | 0.00 | 40 | 1021.7 |
| 20260502161557 | 16 | 64 | 16.1 | 27.4 | 0.00 | 0.00 | 0.00 | 42 | 1021.7 |
| 20260502151529 | 15 | 51 | 17.7 | 25.7 | 0.00 | 0.00 | 0.00 | 44 | 1021.7 |
| 20260502130116 | 8 | 40 | 6.4 | 11.3 | 0.00 | 0.00 | 0.00 | 56 | 1021.0 |
| 20260502123121 | 8 | 32 | 8.0 | 16.1 | 0.00 | 0.00 | 0.00 | 57 | 1020.8 |
| 20260502121551 | 7 | 20 | 8.0 | 11.3 | 0.00 | 0.00 | 0.00 | 59 | 1020.8 |
| 20260502114547 | 8 | 33 | 8.0 | 16.1 | 0.00 | 0.00 | 0.00 | 55 | 1020.5 |
| 20260502113041 | 8 | 39 | 11.3 | 20.9 | 0.00 | 0.00 | 0.00 | 54 | 1020.3 |
| 20260502111537 | 9 | 33 | 17.7 | 22.5 | 0.00 | 0.00 | 0.00 | 52 | 1020.1 |
| 20260502110044 | 10 | 25 | 17.7 | 25.7 | 0.00 | 0.00 | 0.00 | 51 | 1019.8 |
| 20260502104528 | 10 | 24 | 14.5 | 20.9 | 0.00 | 0.00 | 0.00 | 50 | 1019.5 |
| 20260502103028 | 10 | 17 | 12.9 | 19.3 | 0.00 | 0.00 | 0.00 | 50 | 1019.3 |
| 20260502101524 | 10 | 25 | 12.9 | 17.7 | 0.00 | 0.00 | 0.00 | 49 | 1019.0 |
| 20260502091513 | 10 | 43 | 8.0 | 20.9 | 0.00 | 0.00 | 0.00 | 44 | 1018.2 |
| 20260502071529 | 8 | 250 | 0.0 | 4.8 | 0.00 | 0.00 | 0.00 | 47 | 1017.4 |
| 20260502070025 | 9 | 286 | 1.6 | 4.8 | 0.00 | 0.00 | 0.00 | 44 | 1017.4 |
| 20260502064525 | 8 | 245 | 0.0 | 4.8 | 0.00 | 0.00 | 0.00 | 45 | 1017.4 |
| 20260502063019 | 8 | 305 | 3.2 | 6.4 | 0.00 | 0.00 | 0.00 | 45 | 1017.3 |
| 20260502061517 | 9 | 323 | 1.6 | 8.0 | 0.00 | 0.00 | 0.00 | 44 | 1017.4 |
| 20260502060013 | 8 | 4 | 3.2 | 11.3 | 0.00 | 0.00 | 0.00 | 46 | 1017.4 |
| 20260502054521 | 8 | 308 | 1.6 | 6.4 | 0.00 | 0.00 | 0.00 | 44 | 1017.3 |
| 20260502053011 | 9 | 319 | 3.2 | 6.4 | 0.00 | 0.00 | 0.00 | 43 | 1017.3 |
| 20260502051518 | 9 | 330 | 0.0 | 4.8 | 0.00 | 0.00 | 0.00 | 42 | 1017.3 |
| 20260502050027 | 8 | 302 | 1.6 | 4.8 | 0.00 | 0.00 | 0.00 | 41 | 1017.3 |
| 20260502044509 | 9 | 295 | 1.6 | 4.8 | 0.00 | 0.00 | 0.00 | 40 | 1017.2 |
| 20260502043009 | 10 | 290 | 0.0 | 3.2 | 0.00 | 0.00 | 0.00 | 38 | 1017.2 |
| 20260502041546 | 10 | 290 | 1.6 | 4.8 | 0.00 | 0.00 | 0.00 | 37 | 1017.2 |
| 20260502040038 | 10 | 301 | 3.2 | 6.4 | 0.00 | 0.00 | 0.00 | 35 | 1017.1 |
| 20260502034535 | 11 | 306 | 1.6 | 6.4 | 0.00 | 0.00 | 0.00 | 34 | 1016.9 |
| 20260502033043 | 12 | 307 | 0.0 | 3.2 | 0.00 | 0.00 | 0.00 | 32 | 1016.8 |
| 20260502031534 | 14 | 297 | 0.0 | 4.8 | 0.00 | 0.00 | 0.00 | 29 | 1016.7 |
| 20260502030034 | 15 | 293 | 1.6 | 4.8 | 0.00 | 0.00 | 0.00 | 28 | 1016.4 |
| 20260502024531 | 16 | 275 | 0.0 | 4.8 | 0.00 | 0.00 | 0.00 | 26 | 1016.3 |
| 20260502023031 | 17 | 293 | 1.6 | 6.4 | 0.00 | 0.00 | 0.00 | 25 | 1016.2 |
| 20260502021530 | 17 | 264 | 3.2 | 6.4 | 0.00 | 0.00 | 0.00 | 24 | 1016.2 |
| 20260502020030 | 18 | 269 | 1.6 | 4.8 | 0.00 | 0.00 | 0.00 | 22 | 1016.0 |
| 20260502014531 | 20 | 282 | 1.6 | 4.8 | 0.00 | 0.00 | 0.00 | 21 | 1016.0 |
| 20260502013026 | 21 | 260 | 3.2 | 8.0 | 0.00 | 0.00 | 0.00 | 19 | 1016.0 |
| 20260502011525 | 22 | 254 | 6.4 | 12.9 | 0.00 | 0.00 | 0.00 | 18 | 1016.1 |
| 20260502010030 | 22 | 243 | 1.6 | 11.3 | 0.00 | 0.00 | 0.00 | 22 | 1016.2 |
| 20260502004541 | 23 | 14 | 3.2 | 11.3 | 0.00 | 0.00 | 0.00 | 21 | 1016.2 |
| 20260502003020 | 23 | 304 | 0.0 | 11.3 | 0.00 | 0.00 | 0.00 | 22 | 1016.3 |
| 20260502001519 | 23 | 21 | 6.4 | 14.5 | 0.00 | 0.00 | 0.00 | 21 | 1016.4 |
| 20260502000018 | 23 | 281 | 4.8 | 16.1 | 0.00 | 0.00 | 0.00 | 22 | 1016.4 |
| 20260501234513 | 23 | 9 | 0.0 | 6.4 | 0.00 | 0.00 | 0.00 | 21 | 1016.6 |
| 20260501233012 | 23 | 283 | 3.2 | 11.3 | 0.00 | 0.00 | 0.00 | 22 | 1016.7 |
| 20260501231516 | 22 | 16 | 4.8 | 14.5 | 0.00 | 0.00 | 0.00 | 22 | 1016.8 |
| 20260501230010 | 23 | 21 | 8.0 | 19.3 | 0.00 | 0.00 | 0.00 | 21 | 1017.0 |
| 20260501224506 | 23 | 269 | 3.2 | 9.7 | 0.00 | 0.00 | 0.00 | 21 | 1017.1 |
| 20260501223009 | 23 | 287 | 3.2 | 14.5 | 0.00 | 0.00 | 0.00 | 21 | 1017.2 |
| 20260501221504 | 22 | 295 | 4.8 | 16.1 | 0.00 | 0.00 | 0.00 | 22 | 1017.3 |